SCP
0 0 0 0 0 0 0 0 0 1 1 2 3 4 5 7 7 6 7 8 10 13 18 20 19 18 15 12 11 11 12 12 10 9 8 7 7 8 10 11 11 11 11 10
0 0 0 0 0 0 0 0 0 1 2 2 3 4 6 7 7 6 7 8 10 13 17 21 21 19 16 13 12 12 12 11 9 8 8 7 7 8 10 11 12 11 11 11
0 0 0 0 0 0 0 0 1 2 2 3 3 4 6 7 6 5 6 8 10 12 15 20 23 20 15 12 11 11 11 10 9 9 9 8 8 9 11 12 13 12 12 11
0 0 0 0 0 0 0 0 1 2 3 3 4 4 5 6 6 5 5 6 8 10 13 18 20 17 13 10 10 10 10 9 9 9 9 10 10 11 12 14 14 13 12 12
0 0 0 0 1 1 1 1 2 3 3 4 5 5 5 5 5 5 5 6 8 10 12 15 15 13 11 10 10 10 10 10 10 10 9 10 11 13 14 15 15 14 12 12
1 1 0 1 1 1 1 1 2 3 4 5 5 5 5 5 6 6 6 7 8 10 11 12 11 10 10 11 11 11 10 10 10 10 10 11 13 15 16 16 15 14 12 11
1 1 1 1 1 1 2 2 3 3 4 5 5 5 6 6 8 8 8 8 8 9 10 11 11 11 11 11 10 10 9 9 10 11 11 12 14 17 18 17 15 13 12 11
1 1 1 2 2 3 3 3 3 3 4 5 5 5 6 8 10 11 10 9 9 9 11 12 13 13 12 11 11 10 9 9 10 11 11 12 14 17 19 17 15 12 11 11
5 5 4 4 4 5 4 3 3 3 4 4 4 5 6 9 12 12 11 11 11 11 13 16 17 15 13 12 12 12 12 11 11 11 11 12 13 16 17 17 14 13 13 13
10 9 7 6 5 5 4 3 3 3 4 4 5 6 7 10 12 13 13 13 13 13 15 19 20 18 15 14 14 14 13 13 12 11 11 12 13 14 16 16 14 13 13 14
12 11 9 6 5 4 3 3 3 4 4 5 6 7 8 11 14 16 15 16 15 14 15 19 20 18 16 15 15 15 14 12 11 10 11 12 13 13 13 13 13 12 12 12
11 12 12 10 8 5 3 3 3 4 5 6 8 9 10 13 15 17 18 18 17 16 17 19 19 17 16 15 15 15 13 11 10 11 12 13 13 12 11 10 8 8 9 9
10 11 14 15 14 8 4 3 3 4 5 7 9 11 12 13 14 16 18 19 19 18 19 19 19 17 15 15 16 16 16 15 14 16 16 16 15 13 12 9 7 6 6 6
6 7 9 14 15 11 6 5 5 5 6 7 8 10 11 12 13 15 17 17 18 19 19 19 18 16 15 15 16 18 19 19 20 21 20 19 17 15 13 12 10 7 4 3
3 4 5 8 11 10 8 6 6 7 7 8 9 9 11 11 13 15 16 16 17 18 19 18 17 16 15 14 15 17 18 20 21 21 20 18 16 14 13 12 11 8 5 3
3 3 4 5 6 7 6 6 6 7 8 9 10 10 11 12 13 15 16 17 19 20 20 18 17 15 14 13 12 12 12 13 15 15 15 14 14 12 11 10 9 8 6 5
3 3 3 3 4 4 4 5 5 6 7 8 9 10 10 10 12 15 16 17 19 20 19 17 16 15 13 12 11 9 8 7 8 9 10 10 9 9 8 7 7 7 7 6
3 3 3 3 3 3 4 4 5 6 6 7 8 8 8 8 9 12 14 16 18 19 18 17 15 14 13 11 10 9 7 5 4 5 6 6 5 5 4 4 4 5 5 5
2 3 3 3 3 3 3 5 6 6 6 6 6 7 7 7 8 9 12 14 16 17 17 15 13 12 11 9 8 7 6 5 4 4 4 4 3 3 2 2 2 3 3 3
2 3 4 5 4 4 4 5 6 6 5 5 6 8 8 8 8 8 9 10 11 12 12 10 10 10 9 7 6 5 5 4 4 4 4 4 4 3 3 2 2 2 2 2
3 3 4 6 6 5 5 5 5 5 6 7 9 9 9 8 7 6 6 6 6 6 6 6 7 8 7 5 4 3 4 4 4 4 4 3 4 4 4 3 2 2 2 1
4 4 4 5 6 6 6 6 6 7 8 9 10 9 8 7 6 5 5 4 3 3 3 4 4 4 4 3 3 3 4 5 5 4 4 3 3 3 4 3 3 2 2 1
5 6 6 6 7 8 7 6 6 7 8 8 8 7 6 5 5 5 4 3 2 1 2 2 1 2 2 3 5 5 5 5 5 4 4 3 3 3 3 3 2 2 2 1
10 10 11 10 10 10 8 7 5 5 4 4 4 3 4 4 5 5 4 3 2 1 1 1 0 1 2 4 5 6 5 5 4 4 4 3 2 2 2 2 2 2 2 1
15 16 16 15 13 10 8 6 3 2 2 1 1 1 2 3 4 4 4 4 2 1 1 1 1 1 1 2 3 4 4 3 4 4 4 3 2 2 2 2 2 2 1 1
18 18 17 15 12 8 6 4 2 1 1 1 1 1 1 2 2 3 4 3 2 2 2 2 1 1 1 1 1 2 2 2 3 4 4 3 2 2 2 2 1 1 1 1
18 18 17 14 10 6 4 2 1 1 1 1 1 1 1 2 2 2 2 3 2 2 2 2 2 1 1 1 1 1 2 2 3 4 4 3 3 3 2 2 1 1 1 1
Wind_Speed
15 15 12 12 14 14 14 13 12 11 10 5 4 3 4 5 5 6 6 6 6 6 5 6 6 5 4 4 4 5 6 5 5 4 3 3 3 3 2 1 2 1 1 0
14 16 15 15 14 14 15 14 14 12 9 4 3 3 3 3 4 5 6 6 6 6 6 6 6 6 5 4 4 5 6 6 5 5 4 4 3 3 3 2 2 1 1 1
12 14 15 17 14 14 14 14 13 11 7 4 2 3 4 2 3 4 5 6 7 6 6 6 6 5 5 5 5 5 6 6 6 5 5 4 4 4 3 3 2 2 2 1
11 12 17 12 11 13 13 12 10 8 6 4 2 3 4 4 4 3 4 4 5 6 6 6 6 5 5 5 5 5 5 5 5 5 5 4 4 3 3 3 2 2 2 1
10 13 15 13 11 11 10 9 7 6 4 2 2 2 3 4 4 4 4 4 3 4 6 6 6 6 5 5 5 5 5 5 5 5 5 4 4 3 3 3 3 2 2 2
11 13 14 10 8 7 7 8 4 3 3 3 4 4 2 4 4 4 4 4 3 4 5 5 5 5 6 6 6 5 5 5 5 5 5 5 4 4 3 3 3 2 2 2
14 13 11 8 6 6 10 4 2 3 2 2 3 1 2 3 4 4 5 4 4 4 4 4 5 5 5 6 5 5 4 4 4 4 5 5 4 3 3 3 2 2 2 2
11 13 10 5 5 3 2 5 4 3 2 1 1 2 2 2 4 4 4 4 4 4 4 4 4 5 5 5 4 4 5 5 4 4 4 4 4 3 3 4 4 3 3 3
6 6 2 3 3 3 3 3 3 3 3 1 1 2 2 3 3 3 4 4 3 4 4 4 4 4 5 4 4 4 4 5 4 4 3 4 4 4 4 4 4 3 3 3
4 4 3 3 3 3 3 3 3 3 2 3 2 1 1 2 4 3 3 3 3 4 4 4 4 3 3 4 4 4 4 4 4 4 4 4 3 3 4 3 3 3 3 3
6 5 4 4 4 4 3 3 3 4 3 3 2 2 1 2 3 3 3 2 2 3 4 4 3 3 4 4 4 5 4 4 4 4 4 3 3 1 2 1 1 2 2 2
5 3 3 4 4 5 4 4 3 3 4 3 2 1 1 1 2 3 3 3 3 3 4 4 4 3 3 4 4 4 4 4 4 4 4 4 4 3 4 3 4 4 3 2
5 6 6 5 6 5 5 5 4 4 3 3 2 1 1 1 1 2 3 4 4 4 4 4 5 4 3 4 4 3 3 3 3 3 4 4 4 4 3 2 2 2 2 2
5 6 7 6 7 6 5 5 5 4 3 2 1 1 1 1 1 2 3 3 3 3 4 4 5 5 4 4 4 3 3 3 3 3 3 3 3 3 4 4 4 3 2 3
7 7 7 7 7 6 5 5 5 4 2 1 1 0 1 1 2 2 3 2 2 3 3 3 4 4 4 4 4 4 4 3 3 2 2 3 3 3 3 4 3 3 4 4
7 8 8 7 7 7 6 5 5 3 1 1 1 1 1 1 2 2 2 3 2 3 3 3 3 3 3 4 4 3 3 3 2 2 3 3 3 4 3 3 3 3 4 5
7 7 6 6 6 6 5 4 4 2 2 2 1 1 1 1 1 2 2 2 2 2 2 2 1 2 3 4 4 3 3 3 4 3 3 3 3 3 3 3 3 3 3 4
6 6 6 5 4 4 3 3 2 1 1 1 1 1 1 2 1 0 1 1 1 2 1 1 2 2 3 3 3 3 3 3 4 4 3 3 3 3 3 3 3 4 3 5
5 5 4 3 3 3 2 1 1 1 1 1 0 1 1 1 0 1 1 1 1 2 1 1 2 3 3 2 2 3 3 4 4 4 3 4 4 4 4 4 4 4 4 4
4 3 2 3 3 2 1 1 1 1 1 1 1 1 1 0 1 1 1 2 2 1 0 1 1 2 2 1 3 4 4 4 4 4 3 4 4 4 4 4 4 3 3 3
2 1 1 1 1 1 1 2 2 1 1 1 1 1 1 1 1 1 1 2 1 2 1 1 1 1 1 2 3 4 3 3 3 3 3 3 3 3 3 3 3 3 3 3
2 1 1 1 1 1 1 1 1 2 1 1 1 1 1 1 2 2 2 1 1 1 1 1 1 0 1 2 3 3 3 3 3 3 3 3 3 3 3 3 3 3 3 2
2 1 1 1 1 1 1 1 1 1 1 1 1 1 2 2 2 2 2 1 1 1 0 1 1 1 1 3 4 3 4 4 3 3 3 3 3 3 3 3 3 2 2 3
2 2 1 1 1 1 1 1 1 0 1 1 1 1 2 2 2 2 1 2 2 2 1 1 3 3 3 4 4 4 3 3 3 3 3 3 3 3 3 3 3 3 3 3
2 2 1 1 1 1 1 1 1 1 2 2 2 2 2 2 2 2 1 1 3 3 3 3 4 4 4 4 4 4 4 3 3 3 3 4 4 3 3 3 3 3 2 2
1 1 1 1 2 1 1 1 1 1 1 1 1 1 1 0 1 1 1 2 3 3 3 2 3 4 4 5 4 4 4 3 3 4 3 3 3 3 3 3 4 3 2 2
1 0 1 1 1 1 1 1 1 2 1 1 2 1 1 1 2 2 2 2 2 3 3 3 4 4 4 4 4 4 3 3 2 2 3 3 2 2 2 2 1 1 2 2
Wind_Direction
262 263 257 237 235 236 239 245 251 253 249 215 159 156 142 150 159 163 159 153 146 146 145 146 143 140 145 150 155 159 153 155 151 161 158 153 153 150 149 152 151 132 111 38
259 259 257 256 244 239 243 246 249 251 255 246 179 134 128 155 167 169 166 165 160 156 156 154 151 153 154 152 158 155 160 160 154 160 163 162 154 152 151 150 143 127 111 75
256 256 257 249 246 246 244 245 245 245 247 252 187 135 136 157 168 172 169 165 163 165 162 158 160 158 161 162 164 162 163 160 160 164 165 169 169 160 162 158 146 130 117 100
255 253 248 250 253 254 250 252 254 245 237 224 194 157 151 159 144 141 143 149 156 161 159 160 159 158 160 164 160 159 161 159 159 161 164 165 167 169 167 157 156 146 134 131
249 247 248 252 249 254 255 258 266 251 240 218 199 175 153 141 138 132 127 130 146 158 157 155 157 159 164 165 161 166 167 164 163 162 163 163 168 174 169 162 159 160 148 147
243 246 247 250 255 259 255 246 267 272 241 236 238 232 175 118 118 121 119 125 130 138 141 144 151 158 169 169 167 172 169 163 160 161 164 169 173 175 173 173 172 170 155 151
242 246 250 279 282 251 243 256 341 313 302 256 252 271 109 112 113 118 123 128 131 132 134 143 152 161 172 168 172 173 161 156 160 164 167 165 166 172 170 176 169 172 167 150
237 243 246 287 282 268 342 7 354 332 310 335 85 135 152 135 125 124 128 136 140 132 134 140 158 165 169 170 171 166 158 157 160 168 180 169 166 170 175 177 183 195 190 176
233 241 302 340 354 3 359 360 345 336 327 307 218 208 175 138 126 137 138 144 145 138 140 145 152 160 168 163 160 163 159 161 167 173 178 166 170 178 181 185 197 194 189 185
251 248 281 317 316 328 341 342 333 331 308 300 282 255 169 128 132 135 134 133 140 147 152 152 151 153 161 154 155 160 164 167 173 174 177 166 172 182 188 190 197 194 190 185
257 258 282 286 330 324 323 315 308 312 299 286 288 282 209 138 137 139 141 145 150 153 154 150 148 154 158 155 157 161 170 178 185 186 176 166 167 156 180 154 181 192 194 181
272 299 275 282 302 295 297 295 287 287 292 297 302 307 293 145 147 154 162 158 153 152 151 149 150 155 158 158 164 171 184 193 197 189 173 172 168 153 67 86 111 107 97 117
297 305 293 281 290 288 264 269 279 266 262 268 269 234 215 211 172 173 167 156 160 160 154 155 159 158 164 168 175 186 197 199 205 195 183 189 186 177 162 118 94 93 108 119
306 300 294 292 293 292 286 288 285 275 259 248 225 233 203 235 187 167 160 159 161 160 162 165 167 166 167 172 179 187 202 195 213 210 202 204 196 196 188 180 177 173 167 170
290 289 285 281 284 282 278 271 268 267 251 242 241 220 229 243 235 196 162 153 163 174 170 175 174 173 165 170 177 193 205 203 205 213 212 209 210 218 210 190 183 174 160 168
290 285 279 274 271 268 260 259 264 263 257 265 277 277 292 277 244 198 157 157 175 185 168 168 180 180 177 176 178 190 202 200 201 217 224 217 211 216 217 200 191 191 188 176
278 279 281 279 267 262 262 265 271 265 259 255 252 264 252 243 229 180 157 155 160 159 159 163 185 188 185 195 201 207 203 189 201 223 226 227 223 216 218 216 208 200 195 173
270 280 286 285 280 276 275 278 294 320 284 242 201 213 254 252 244 175 169 155 145 142 156 169 181 223 216 205 212 218 210 203 202 215 220 229 240 235 229 224 214 211 188 173
269 266 260 266 275 273 285 304 323 318 320 327 325 277 257 228 97 48 63 168 197 214 218 203 198 213 221 216 228 216 217 222 214 214 214 213 227 232 227 227 224 213 203 187
251 247 257 268 265 272 298 311 299 299 308 319 325 301 311 50 107 173 197 212 212 221 119 106 219 240 240 228 257 235 221 223 222 222 220 226 231 230 233 238 237 228 215 199
289 242 204 274 304 291 288 293 305 315 307 277 252 236 261 232 222 215 231 249 134 106 150 190 238 253 259 271 251 246 235 231 228 224 224 229 231 233 237 241 240 233 232 229
334 7 47 351 318 292 271 259 256 266 276 295 294 300 289 254 237 237 238 252 200 107 237 227 218 275 325 280 263 259 248 238 234 232 235 237 236 233 233 233 236 240 235 233
349 13 3 335 321 292 264 250 236 251 262 271 289 291 282 284 273 263 246 215 166 133 228 324 330 337 270 257 256 250 246 239 234 229 233 238 240 240 241 241 238 237 237 237
340 353 345 328 318 308 316 313 315 310 293 282 262 260 264 264 257 254 240 152 146 173 225 177 201 228 245 258 264 257 247 238 236 232 232 235 234 233 239 241 241 239 235 237
337 337 336 318 303 300 304 260 256 250 258 269 261 246 252 257 270 291 300 174 170 200 218 196 194 211 235 257 261 263 262 251 242 238 234 238 240 237 240 245 240 236 232 224
300 297 324 308 307 302 282 271 267 268 275 281 281 275 282 307 282 273 251 225 214 226 243 223 202 212 242 255 255 255 257 251 239 241 242 237 244 246 242 238 233 228 223 215
268 242 236 264 271 270 272 277 280 280 282 289 297 305 310 295 278 273 270 260 243 232 236 235 222 222 236 252 259 258 256 252 246 246 238 233 232 234 246 251 249 223 211 211